SVA1773 OERK-OEGN

Flight info

Callsign SVA1773
Flight time 1h 37m
Altitude 36000
Route MERVI Z414 EMEKO/N0447F350 V40 ABH/N0399F240 V40 GIZ
Aircraft A320/M-SDE3FGHIRWY/LB1

Departure

Time 2026-04-24 22:44
Airport King Khalid International Airport (OERK)

Arrival

Time 2026-04-25 00:22
Airport Jizan Regional Airport / King Abdullah bin Abdulaziz Airport (OEGN)
Time Latitude Longitude Altitude Speed Heading
2026-04-24 21:59 24.94413 46.71241 2079 ft 0 kts 240°
2026-04-24 22:30 24.94415 46.71243 2042 ft 1 kts 240°
2026-04-24 22:31 24.94423 46.71261 2041 ft 3 kts 243°
2026-04-24 22:31 24.94432 46.71280 2040 ft 3 kts 248°
2026-04-24 22:31 24.94439 46.71301 2038 ft 3 kts 256°
2026-04-24 22:31 24.94442 46.71323 2038 ft 3 kts 276°
2026-04-24 22:32 24.94438 46.71340 2038 ft 2 kts 321°
2026-04-24 22:32 24.94431 46.71346 2038 ft 1 kts 330°
2026-04-24 22:32 24.94430 46.71346 2038 ft 0 kts 330°
2026-04-24 22:37 24.94433 46.71345 2033 ft 3 kts 330°
2026-04-24 22:37 24.94458 46.71329 2034 ft 4 kts 330°
2026-04-24 22:37 24.94474 46.71318 2034 ft 5 kts 330°
2026-04-24 22:38 24.94524 46.71286 2035 ft 10 kts 330°
2026-04-24 22:38 24.94616 46.71289 2038 ft 11 kts 56°
2026-04-24 22:38 24.94639 46.71341 2038 ft 11 kts 60°
2026-04-24 22:38 24.94674 46.71408 2038 ft 9 kts 60°
2026-04-24 22:39 24.94702 46.71464 2038 ft 7 kts 59°
2026-04-24 22:39 24.94729 46.71511 2036 ft 9 kts 61°
2026-04-24 22:39 24.94760 46.71570 2039 ft 8 kts 60°
2026-04-24 22:39 24.94786 46.71623 2034 ft 9 kts 61°
2026-04-24 22:40 24.94815 46.71683 2035 ft 9 kts 61°
2026-04-24 22:40 24.94841 46.71741 2032 ft 8 kts 74°
2026-04-24 22:40 24.94822 46.71789 2036 ft 6 kts 149°
2026-04-24 22:40 24.94787 46.71809 2031 ft 5 kts 150°
2026-04-24 22:41 24.94759 46.71826 2041 ft 6 kts 151°
2026-04-24 22:41 24.94697 46.71865 2036 ft 11 kts 150°
2026-04-24 22:41 24.94636 46.71902 2034 ft 9 kts 151°
2026-04-24 22:41 24.94563 46.71949 2032 ft 13 kts 150°
2026-04-24 22:42 24.94489 46.71995 2036 ft 11 kts 150°
2026-04-24 22:42 24.94424 46.72035 2032 ft 10 kts 151°
2026-04-24 22:42 24.94367 46.72072 2031 ft 9 kts 149°
2026-04-24 22:42 24.94339 46.72123 2034 ft 8 kts 89°
2026-04-24 22:43 24.94375 46.72196 2023 ft 15 kts 47°
2026-04-24 22:43 24.94480 46.72220 2029 ft 13 kts 353°
2026-04-24 22:43 24.94547 46.72186 2026 ft 0 kts 328°
2026-04-24 22:43 24.94608 46.72147 2021 ft 38 kts 330°
2026-04-24 22:44 24.95050 46.71867 2024 ft 105 kts 330°
2026-04-24 22:44 24.95832 46.71375 2057 ft 151 kts 330°
2026-04-24 22:44 24.96812 46.70750 2368 ft 173 kts 332°
2026-04-24 22:44 24.97927 46.70079 2843 ft 190 kts 338°
2026-04-24 22:45 24.99202 46.69629 3448 ft 196 kts 345°
2026-04-24 22:45 25.00544 46.69136 3845 ft 212 kts 343°
2026-04-24 22:45 25.01951 46.68568 4223 ft 228 kts 341°
2026-04-24 22:45 25.03497 46.67932 4573 ft 247 kts 341°
2026-04-24 22:46 25.05170 46.67248 5007 ft 265 kts 340°
2026-04-24 22:46 25.06953 46.66522 5489 ft 282 kts 338°
2026-04-24 22:46 25.08600 46.65340 6173 ft 286 kts 311°
2026-04-24 22:46 25.09717 46.63530 6921 ft 285 kts 289°
2026-04-24 22:47 25.10132 46.61429 7741 ft 278 kts 265°
2026-04-24 22:47 25.09771 46.59377 8580 ft 272 kts 244°
2026-04-24 22:47 25.08734 46.57669 9419 ft 269 kts 224°
2026-04-24 22:47 25.07322 46.56307 10194 ft 271 kts 221°
2026-04-24 22:48 25.05851 46.54920 10598 ft 287 kts 221°
2026-04-24 22:48 25.04315 46.53470 10925 ft 303 kts 221°
2026-04-24 22:48 25.02669 46.51912 11294 ft 317 kts 221°
2026-04-24 22:48 25.00978 46.50310 11883 ft 323 kts 221°
2026-04-24 22:49 24.99267 46.48689 12553 ft 326 kts 222°
2026-04-24 22:49 24.97537 46.47054 13240 ft 329 kts 222°
2026-04-24 22:49 24.95792 46.45406 13907 ft 332 kts 222°
2026-04-24 22:49 24.94032 46.43741 14494 ft 335 kts 223°
2026-04-24 22:50 24.92254 46.42054 15083 ft 338 kts 223°
2026-04-24 22:50 24.90466 46.40361 15674 ft 341 kts 223°
2026-04-24 22:50 24.88662 46.38657 16042 ft 342 kts 223°
2026-04-24 22:50 24.86845 46.36942 16551 ft 346 kts 223°
2026-04-24 22:51 24.85007 46.35209 17153 ft 349 kts 223°
2026-04-24 22:51 24.83155 46.33463 17742 ft 352 kts 223°
2026-04-24 22:51 24.81288 46.31699 18307 ft 356 kts 223°
2026-04-24 22:51 24.79406 46.29920 18826 ft 359 kts 223°
2026-04-24 22:52 24.77499 46.28119 19318 ft 362 kts 223°
2026-04-24 22:52 24.75584 46.26314 19835 ft 364 kts 223°
2026-04-24 22:52 24.73675 46.24515 20355 ft 367 kts 223°
2026-04-24 22:52 24.71728 46.22683 20861 ft 370 kts 223°
2026-04-24 22:53 24.69739 46.20814 21375 ft 373 kts 223°
2026-04-24 22:53 24.67786 46.18976 21870 ft 375 kts 223°
2026-04-24 22:53 24.65794 46.17099 22363 ft 378 kts 223°
2026-04-24 22:53 24.63789 46.15211 22852 ft 381 kts 223°
2026-04-24 22:54 24.61777 46.13318 23316 ft 384 kts 223°
2026-04-24 22:54 24.59737 46.11402 23757 ft 387 kts 223°
2026-04-24 22:54 24.57685 46.09475 24135 ft 389 kts 223°
2026-04-24 22:54 24.55624 46.07543 24508 ft 391 kts 223°
2026-04-24 22:55 24.53546 46.05596 24873 ft 393 kts 223°
2026-04-24 22:55 24.51461 46.03642 25241 ft 395 kts 223°
2026-04-24 22:55 24.49365 46.01677 25603 ft 397 kts 223°
2026-04-24 22:55 24.47257 45.99704 25955 ft 399 kts 223°
2026-04-24 22:56 24.45140 45.97724 26303 ft 401 kts 223°
2026-04-24 22:56 24.43006 45.95727 26647 ft 403 kts 223°
2026-04-24 22:56 24.40868 45.93722 26988 ft 405 kts 223°
2026-04-24 22:56 24.38718 45.91706 27321 ft 407 kts 223°
2026-04-24 22:57 24.36561 45.89686 27653 ft 409 kts 223°
2026-04-24 22:57 24.34416 45.87677 27976 ft 411 kts 223°
2026-04-24 22:57 24.32236 45.85640 28299 ft 413 kts 223°
2026-04-24 22:57 24.30041 45.83592 28623 ft 415 kts 223°
2026-04-24 22:58 24.27836 45.81540 28920 ft 417 kts 223°
2026-04-24 22:58 24.25621 45.79480 29203 ft 419 kts 223°
2026-04-24 22:58 24.23395 45.77409 29486 ft 421 kts 223°
2026-04-24 22:58 24.21163 45.75329 29755 ft 423 kts 222°
2026-04-24 22:59 24.18917 45.73232 30027 ft 425 kts 222°
2026-04-24 22:59 24.16657 45.71126 30262 ft 426 kts 222°
2026-04-24 22:59 24.12118 45.66906 30699 ft 429 kts 223°
2026-04-24 23:00 24.09841 45.64789 30922 ft 430 kts 223°
2026-04-24 23:00 24.07556 45.62664 31133 ft 431 kts 223°
2026-04-24 23:00 24.05271 45.60537 31343 ft 432 kts 223°
2026-04-24 23:00 24.03016 45.58444 31619 ft 430 kts 223°
2026-04-24 23:01 24.00702 45.56299 31920 ft 429 kts 223°
2026-04-24 23:01 23.98460 45.54220 32213 ft 427 kts 223°
2026-04-24 23:01 23.96192 45.52119 32508 ft 426 kts 223°
2026-04-24 23:01 23.93929 45.50027 32794 ft 425 kts 223°
2026-04-24 23:02 23.91674 45.47941 33086 ft 424 kts 223°
2026-04-24 23:02 23.89431 45.45867 33374 ft 422 kts 223°
2026-04-24 23:02 23.87187 45.43793 33678 ft 421 kts 223°
2026-04-24 23:02 23.84954 45.41728 33971 ft 420 kts 223°
2026-04-24 23:03 23.82728 45.39671 34236 ft 418 kts 224°
2026-04-24 23:03 23.80511 45.37625 34498 ft 417 kts 224°
2026-04-24 23:03 23.78300 45.35584 34761 ft 415 kts 224°
2026-04-24 23:03 23.76102 45.33556 35037 ft 412 kts 224°
2026-04-24 23:04 23.73918 45.31541 35305 ft 410 kts 225°
2026-04-24 23:04 23.71744 45.29537 35570 ft 408 kts 225°
2026-04-24 23:04 23.69586 45.27546 35825 ft 406 kts 225°
2026-04-24 23:04 23.67431 45.25556 36052 ft 404 kts 225°
2026-04-24 23:05 23.65289 45.23581 36270 ft 402 kts 225°
2026-04-24 23:05 23.63152 45.21611 36488 ft 401 kts 226°
2026-04-24 23:05 23.61048 45.19676 36703 ft 399 kts 226°
2026-04-24 23:05 23.58926 45.17726 36898 ft 398 kts 226°
2026-04-24 23:06 23.56817 45.15790 37095 ft 396 kts 226°
2026-04-24 23:06 23.54712 45.13856 37275 ft 395 kts 226°
2026-04-24 23:06 23.52617 45.11932 37453 ft 394 kts 227°
2026-04-24 23:06 23.50525 45.10010 37628 ft 392 kts 227°
2026-04-24 23:07 23.48442 45.08097 37807 ft 391 kts 227°
2026-04-24 23:07 23.46267 45.06305 37978 ft 395 kts 223°
2026-04-24 23:07 23.44016 45.04604 38026 ft 393 kts 223°
2026-04-24 23:08 23.39516 45.01208 38025 ft 393 kts 223°
2026-04-24 23:08 23.35029 44.97816 38019 ft 393 kts 223°
2026-04-24 23:09 23.30537 44.94423 38021 ft 393 kts 223°
2026-04-24 23:09 23.26051 44.91029 38020 ft 393 kts 223°
2026-04-24 23:10 23.21588 44.87661 38013 ft 393 kts 223°
2026-04-24 23:10 23.17086 44.84267 38013 ft 393 kts 223°
2026-04-24 23:11 23.12585 44.80872 38007 ft 394 kts 223°
2026-04-24 23:11 23.08067 44.77479 38009 ft 394 kts 223°
2026-04-24 23:12 23.03556 44.74097 38001 ft 394 kts 223°
2026-04-24 23:12 22.99051 44.70707 38002 ft 394 kts 223°
2026-04-24 23:13 22.94547 44.67319 37998 ft 394 kts 223°
2026-04-24 23:13 22.90029 44.63931 37996 ft 395 kts 223°
2026-04-24 23:14 22.85508 44.60546 37995 ft 395 kts 223°
2026-04-24 23:14 22.80987 44.57157 37991 ft 395 kts 223°
2026-04-24 23:15 22.76459 44.53768 37990 ft 395 kts 223°
2026-04-24 23:15 22.71955 44.50407 37988 ft 395 kts 223°
2026-04-24 23:16 22.67432 44.47028 37986 ft 395 kts 223°
2026-04-24 23:16 22.62901 44.43647 37987 ft 395 kts 224°
2026-04-24 23:17 22.58384 44.40277 37991 ft 395 kts 224°
2026-04-24 23:17 22.53885 44.36923 37995 ft 395 kts 224°
2026-04-24 23:18 22.49363 44.33558 37996 ft 394 kts 224°
2026-04-24 23:18 22.44851 44.30200 37985 ft 394 kts 224°
2026-04-24 23:19 22.40331 44.26837 37984 ft 394 kts 224°
2026-04-24 23:19 22.35810 44.23481 37980 ft 394 kts 224°
2026-04-24 23:20 22.31295 44.20129 37977 ft 394 kts 224°
2026-04-24 23:20 22.26776 44.16777 37980 ft 394 kts 224°
2026-04-24 23:21 22.22250 44.13428 37976 ft 394 kts 224°
2026-04-24 23:21 22.17726 44.10080 37979 ft 394 kts 224°
2026-04-24 23:22 22.13210 44.06732 37974 ft 394 kts 224°
2026-04-24 23:22 22.08696 44.03392 37957 ft 394 kts 224°
2026-04-24 23:23 22.04174 44.00051 37960 ft 394 kts 224°
2026-04-24 23:23 21.99643 43.96715 37951 ft 394 kts 224°
2026-04-24 23:24 21.95109 43.93371 37955 ft 395 kts 224°
2026-04-24 23:24 21.90615 43.90052 37956 ft 395 kts 224°
2026-04-24 23:25 21.86074 43.86704 37961 ft 396 kts 223°
2026-04-24 23:25 21.81520 43.83361 37965 ft 396 kts 224°
2026-04-24 23:26 21.76965 43.80006 37967 ft 396 kts 223°
2026-04-24 23:26 21.73181 43.77228 37967 ft 396 kts 223°
2026-04-24 23:27 21.68624 43.73882 37952 ft 397 kts 223°
2026-04-24 23:27 21.64056 43.70534 37951 ft 398 kts 223°
2026-04-24 23:28 21.59482 43.67187 37948 ft 398 kts 223°
2026-04-24 23:28 21.54904 43.63831 37944 ft 399 kts 223°
2026-04-24 23:29 21.50316 43.60476 37942 ft 399 kts 223°
2026-04-24 23:29 21.45716 43.57113 37942 ft 400 kts 223°
2026-04-24 23:30 21.41111 43.53739 37944 ft 401 kts 223°
2026-04-24 23:30 21.36500 43.50368 37953 ft 401 kts 223°
2026-04-24 23:31 21.31892 43.47003 37948 ft 401 kts 223°
2026-04-24 23:31 21.27292 43.43678 37951 ft 402 kts 223°
2026-04-24 23:32 21.22642 43.40337 37959 ft 402 kts 222°
2026-04-24 23:32 21.17992 43.37002 37927 ft 404 kts 222°
2026-04-24 23:33 21.13292 43.33623 37924 ft 409 kts 221°
2026-04-24 23:33 21.08570 43.30230 37938 ft 409 kts 221°
2026-04-24 23:34 21.03840 43.26840 37949 ft 409 kts 221°
2026-04-24 23:34 20.99105 43.23449 37956 ft 410 kts 221°
2026-04-24 23:35 20.94359 43.20053 37958 ft 410 kts 221°
2026-04-24 23:35 20.89615 43.16653 37970 ft 411 kts 221°
2026-04-24 23:36 20.84870 43.13253 37970 ft 411 kts 221°
2026-04-24 23:36 20.80117 43.09848 37968 ft 411 kts 221°
2026-04-24 23:37 20.75390 43.06470 37978 ft 412 kts 221°
2026-04-24 23:37 20.68235 43.01363 37994 ft 412 kts 221°
2026-04-24 23:38 20.63461 42.97956 37994 ft 412 kts 221°
2026-04-24 23:38 20.58681 42.94564 37998 ft 412 kts 221°
2026-04-24 23:39 20.53899 42.91158 38001 ft 413 kts 221°
2026-04-24 23:39 20.49117 42.87754 38000 ft 413 kts 221°
2026-04-24 23:40 20.44360 42.84381 38005 ft 413 kts 221°
2026-04-24 23:40 20.39579 42.80982 38008 ft 413 kts 221°
2026-04-24 23:41 20.34794 42.77579 38014 ft 413 kts 221°
2026-04-24 23:41 20.30006 42.74180 38012 ft 414 kts 221°
2026-04-24 23:42 20.25222 42.70777 38023 ft 412 kts 222°
2026-04-24 23:42 20.20662 42.67118 38025 ft 409 kts 226°
2026-04-24 23:43 20.16268 42.63271 38025 ft 408 kts 226°
2026-04-24 23:43 20.11902 42.59460 38021 ft 409 kts 226°
2026-04-24 23:44 20.07453 42.55674 38024 ft 410 kts 225°
2026-04-24 23:44 20.02977 42.51911 38026 ft 410 kts 225°
2026-04-24 23:45 19.98507 42.48144 38029 ft 410 kts 225°
2026-04-24 23:45 19.94032 42.44362 38030 ft 409 kts 225°
2026-04-24 23:46 19.89575 42.40592 38022 ft 410 kts 225°
2026-04-24 23:46 19.85097 42.36818 38028 ft 411 kts 225°
2026-04-24 23:47 19.80638 42.33068 38031 ft 411 kts 226°
2026-04-24 23:47 19.76165 42.29298 38029 ft 411 kts 225°
2026-04-24 23:48 19.71682 42.25523 38033 ft 411 kts 225°
2026-04-24 23:48 19.67190 42.21744 38028 ft 412 kts 225°
2026-04-24 23:49 19.62695 42.17963 38035 ft 412 kts 225°
2026-04-24 23:49 19.58193 42.14182 38029 ft 413 kts 225°
2026-04-24 23:50 19.53678 42.10401 38026 ft 413 kts 225°
2026-04-24 23:50 19.48680 42.07285 38007 ft 432 kts 204°
2026-04-24 23:51 19.45676 42.06729 37994 ft 448 kts 189°
2026-04-24 23:51 19.42559 42.07031 37991 ft 465 kts 173°
2026-04-24 23:51 19.39468 42.08231 37982 ft 480 kts 161°
2026-04-24 23:51 19.36447 42.09749 37988 ft 481 kts 161°
2026-04-24 23:52 19.30405 42.12806 38025 ft 481 kts 161°
2026-04-24 23:52 19.24357 42.15847 38038 ft 481 kts 162°
2026-04-24 23:53 19.18303 42.18875 38043 ft 481 kts 162°
2026-04-24 23:53 19.12257 42.21903 38044 ft 481 kts 161°
2026-04-24 23:54 19.06209 42.24934 38047 ft 481 kts 161°
2026-04-24 23:54 19.00150 42.27962 38042 ft 481 kts 161°
2026-04-24 23:55 18.94132 42.30963 38048 ft 481 kts 161°
2026-04-24 23:55 18.88040 42.34002 38042 ft 482 kts 161°
2026-04-24 23:56 18.82002 42.37012 37803 ft 484 kts 161°
2026-04-24 23:56 18.78960 42.38524 37543 ft 483 kts 161°
2026-04-24 23:56 18.75910 42.40037 37290 ft 485 kts 161°
2026-04-24 23:57 18.72855 42.41553 37036 ft 484 kts 161°
2026-04-24 23:57 18.69806 42.43068 36798 ft 485 kts 161°
2026-04-24 23:57 18.66751 42.44587 36541 ft 485 kts 161°
2026-04-24 23:57 18.63699 42.46107 36299 ft 486 kts 160°
2026-04-24 23:58 18.60640 42.47630 36065 ft 487 kts 160°
2026-04-24 23:58 18.57569 42.49159 35834 ft 488 kts 160°
2026-04-24 23:58 18.54499 42.50683 35611 ft 488 kts 160°
2026-04-24 23:58 18.51426 42.52205 35368 ft 489 kts 160°
2026-04-24 23:59 18.48331 42.53734 34625 ft 492 kts 160°
2026-04-24 23:59 18.45248 42.55260 34312 ft 491 kts 160°
2026-04-24 23:59 18.42144 42.56799 34138 ft 494 kts 159°
2026-04-24 23:59 18.39031 42.58342 34192 ft 495 kts 159°
2026-04-25 00:00 18.35923 42.59882 33503 ft 494 kts 159°
2026-04-25 00:00 18.32830 42.61416 32240 ft 489 kts 159°
2026-04-25 00:00 18.29787 42.62930 31177 ft 478 kts 159°
2026-04-25 00:00 18.26802 42.64344 30284 ft 461 kts 165°
2026-04-25 00:01 18.23773 42.65213 29274 ft 441 kts 175°
2026-04-25 00:01 18.20796 42.65459 28716 ft 420 kts 185°
2026-04-25 00:01 18.17910 42.65305 28309 ft 410 kts 187°
2026-04-25 00:01 18.15098 42.65134 28222 ft 403 kts 187°
2026-04-25 00:02 18.09520 42.64802 27945 ft 404 kts 187°
2026-04-25 00:02 18.06689 42.64636 26965 ft 410 kts 186°
2026-04-25 00:02 18.03832 42.64468 25967 ft 411 kts 186°
2026-04-25 00:03 18.00985 42.64301 24920 ft 407 kts 186°
2026-04-25 00:03 17.98214 42.64143 24467 ft 388 kts 186°
2026-04-25 00:03 17.95572 42.63991 23967 ft 373 kts 186°
2026-04-25 00:03 17.93032 42.63842 23447 ft 359 kts 186°
2026-04-25 00:04 17.90580 42.63698 22920 ft 351 kts 185°
2026-04-25 00:04 17.88144 42.63558 22435 ft 349 kts 186°
2026-04-25 00:04 17.85724 42.63421 21969 ft 348 kts 185°
2026-04-25 00:04 17.83312 42.63285 21497 ft 346 kts 185°
2026-04-25 00:05 17.80912 42.63149 21033 ft 345 kts 185°
2026-04-25 00:05 17.78519 42.63010 20553 ft 344 kts 185°
2026-04-25 00:05 17.76132 42.62874 20078 ft 343 kts 185°
2026-04-25 00:05 17.73746 42.62741 19602 ft 343 kts 185°
2026-04-25 00:06 17.71368 42.62609 19129 ft 343 kts 184°
2026-04-25 00:06 17.68988 42.62477 18659 ft 342 kts 184°
2026-04-25 00:06 17.66605 42.62346 18189 ft 343 kts 184°
2026-04-25 00:06 17.64229 42.62213 17676 ft 342 kts 184°
2026-04-25 00:07 17.61853 42.62078 17209 ft 341 kts 184°
2026-04-25 00:07 17.59487 42.61942 16753 ft 339 kts 184°
2026-04-25 00:07 17.57135 42.61808 16300 ft 338 kts 184°
2026-04-25 00:07 17.54786 42.61669 15852 ft 337 kts 184°
2026-04-25 00:08 17.52450 42.61525 15411 ft 336 kts 184°
2026-04-25 00:08 17.50116 42.61378 14962 ft 336 kts 184°
2026-04-25 00:08 17.47786 42.61228 14506 ft 336 kts 184°
2026-04-25 00:08 17.45497 42.61082 14196 ft 331 kts 183°
2026-04-25 00:09 17.43176 42.60936 13777 ft 330 kts 183°
2026-04-25 00:09 17.40915 42.60807 13302 ft 326 kts 180°
2026-04-25 00:09 17.38673 42.60900 12856 ft 312 kts 177°
2026-04-25 00:09 17.36545 42.61006 12437 ft 300 kts 176°
2026-04-25 00:10 17.34525 42.61103 12052 ft 289 kts 176°
2026-04-25 00:10 17.32528 42.61198 11658 ft 279 kts 176°
2026-04-25 00:10 17.30584 42.61291 11278 ft 280 kts 176°
2026-04-25 00:10 17.28637 42.61384 10892 ft 281 kts 176°
2026-04-25 00:11 17.26704 42.61476 10496 ft 282 kts 176°
2026-04-25 00:11 17.25380 42.61540 10236 ft 282 kts 176°
2026-04-25 00:11 17.22833 42.61663 10077 ft 274 kts 176°
2026-04-25 00:11 17.20930 42.61757 9960 ft 274 kts 176°
2026-04-25 00:12 17.19021 42.61851 9589 ft 275 kts 176°
2026-04-25 00:12 17.17110 42.61944 9194 ft 274 kts 176°
2026-04-25 00:12 17.15212 42.62036 8826 ft 272 kts 176°
2026-04-25 00:12 17.13329 42.62127 8479 ft 270 kts 176°
2026-04-25 00:13 17.11458 42.62217 8123 ft 268 kts 176°
2026-04-25 00:13 17.09599 42.62306 7776 ft 267 kts 177°
2026-04-25 00:13 17.07744 42.62395 7426 ft 267 kts 177°
2026-04-25 00:13 17.05890 42.62483 7067 ft 266 kts 177°
2026-04-25 00:14 17.04048 42.62572 6726 ft 264 kts 178°
2026-04-25 00:14 17.02834 42.62630 6499 ft 262 kts 178°
2026-04-25 00:14 17.01019 42.62717 6152 ft 260 kts 178°
2026-04-25 00:14 16.99247 42.63013 5814 ft 256 kts 165°
2026-04-25 00:15 16.97561 42.63535 5573 ft 250 kts 163°
2026-04-25 00:15 16.95921 42.64075 5333 ft 243 kts 163°
2026-04-25 00:15 16.94331 42.64605 5083 ft 238 kts 163°
2026-04-25 00:15 16.92764 42.65128 4777 ft 235 kts 163°
2026-04-25 00:16 16.90710 42.65818 4366 ft 233 kts 163°
2026-04-25 00:16 16.89671 42.66167 4155 ft 232 kts 163°
2026-04-25 00:16 16.88126 42.66627 3970 ft 230 kts 174°
2026-04-25 00:16 16.86578 42.66692 3875 ft 217 kts 181°
2026-04-25 00:17 16.85105 42.66654 3760 ft 207 kts 182°
2026-04-25 00:17 16.83703 42.66604 3640 ft 197 kts 183°
2026-04-25 00:17 16.82389 42.66567 3567 ft 184 kts 178°
2026-04-25 00:17 16.81153 42.66681 3413 ft 175 kts 173°
2026-04-25 00:18 16.79950 42.66661 3131 ft 174 kts 194°
2026-04-25 00:18 16.78869 42.66190 2947 ft 166 kts 223°
2026-04-25 00:18 16.78385 42.65178 2729 ft 158 kts 275°
2026-04-25 00:18 16.78896 42.64271 2536 ft 145 kts 334°
2026-04-25 00:19 16.79805 42.64283 2242 ft 134 kts 33°
2026-04-25 00:19 16.80701 42.64579 1978 ft 147 kts 350°
2026-04-25 00:19 16.81562 42.64012 1838 ft 150 kts 314°
2026-04-25 00:19 16.82311 42.63253 1680 ft 150 kts 323°
2026-04-25 00:20 16.83193 42.62675 1537 ft 150 kts 333°
2026-04-25 00:20 16.84104 42.62156 1248 ft 147 kts 332°
2026-04-25 00:20 16.84988 42.61610 1029 ft 147 kts 330°
2026-04-25 00:20 16.85865 42.61091 777 ft 144 kts 331°
2026-04-25 00:21 16.86735 42.60579 587 ft 143 kts 331°
2026-04-25 00:21 16.87597 42.60072 370 ft 141 kts 332°
2026-04-25 00:21 16.88440 42.59570 202 ft 141 kts 330°
2026-04-25 00:21 16.89295 42.59064 49 ft 141 kts 330°
2026-04-25 00:22 16.90079 42.58598 27 ft 98 kts 330°
2026-04-25 00:22 16.90435 42.58388 29 ft 39 kts 330°
2026-04-25 00:22 16.90648 42.58261 29 ft 41 kts 330°
2026-04-25 00:22 16.90901 42.58110 26 ft 30 kts 330°
2026-04-25 00:23 16.91093 42.57999 26 ft 32 kts 329°
2026-04-25 00:23 16.91251 42.57898 26 ft 15 kts 317°
2026-04-25 00:23 16.91253 42.57805 28 ft 15 kts 214°
2026-04-25 00:23 16.91161 42.57771 25 ft 12 kts 195°
2026-04-25 00:24 16.91079 42.57757 30 ft 12 kts 165°
2026-04-25 00:24 16.91014 42.57796 29 ft 10 kts 150°
2026-04-25 00:24 16.90956 42.57831 28 ft 9 kts 150°
2026-04-25 00:24 16.90894 42.57868 28 ft 10 kts 150°
2026-04-25 00:25 16.90836 42.57904 26 ft 9 kts 150°
2026-04-25 00:25 16.90784 42.57935 27 ft 9 kts 152°
2026-04-25 00:25 16.90714 42.57974 30 ft 13 kts 148°
2026-04-25 00:25 16.90641 42.58021 26 ft 12 kts 148°
2026-04-25 00:26 16.90573 42.58057 26 ft 10 kts 154°
2026-04-25 00:26 16.90516 42.58092 27 ft 9 kts 149°
2026-04-25 00:26 16.90466 42.58123 27 ft 8 kts 149°
2026-04-25 00:26 16.90416 42.58154 27 ft 9 kts 149°
2026-04-25 00:27 16.90354 42.58193 27 ft 13 kts 149°
2026-04-25 00:27 16.90280 42.58238 27 ft 11 kts 149°
2026-04-25 00:27 16.90215 42.58277 27 ft 10 kts 149°
2026-04-25 00:27 16.90155 42.58309 27 ft 9 kts 153°
2026-04-25 00:28 16.90103 42.58338 27 ft 8 kts 151°
2026-04-25 00:28 16.90056 42.58365 27 ft 7 kts 151°
2026-04-25 00:28 16.90016 42.58360 27 ft 3 kts 185°
2026-04-25 00:28 16.90004 42.58371 27 ft 5 kts 143°
2026-04-25 00:29 16.89986 42.58374 27 ft 1 kts 206°
2026-04-25 00:29 16.89978 42.58377 27 ft 3 kts 156°
2026-04-25 00:29 16.89960 42.58390 27 ft 3 kts 155°
2026-04-25 00:29 16.89944 42.58381 27 ft 1 kts 242°
2026-04-25 00:30 16.89937 42.58368 27 ft 5 kts 238°
2026-04-25 00:30 16.89919 42.58341 27 ft 4 kts 235°
2026-04-25 00:30 16.89911 42.58328 27 ft 0 kts 240°
2026-04-25 00:31 16.89910 42.58342 27 ft 0 kts 216°